Regional Weather Roundup
Issued by NWS

Home | Current Version | Previous Version | Graphics & Text | Print | Product List | Glossary Off
Versions: 1 2 3 4 5 6 7 8 9 10 11 12 13 14 15 16 17 18 19 20 21 22 23 24 25 26 27 28 29 30 31 32 33 34 35 36 37 38 39 40 41 42 43 44 45 46 47 48 49 50

000
ASUS43 KMKX 290300
RWRWI

WISCONSIN REGIONAL WEATHER ROUNDUP
NATIONAL WEATHER SERVICE MILWAUKEE/SULLIVAN WI
1000 PM CDT THU JUL 28 2016

NOTE: "FAIR" INDICATES FEW OR NO CLOUDS BELOW 12,000 FEET WITH NO
SIGNIFICANT WEATHER AND/OR OBSTRUCTIONS TO VISIBILITY.

WIZ001-002-006>008-014>016-023>028-290400-
NORTHWEST WISCONSIN

CITY           SKY/WX    TMP DP  RH WIND       PRES   REMARKS
SUPERIOR ARPT  CLEAR     58  57  96 CALM      30.09S
ASHLAND        CLEAR     55  52  89 CALM      30.10R
HAYWARD        CLEAR     57  53  86 CALM      30.09R
SIREN          NOT AVBL
CUMBERLAND     CLOUDY    63  52  67 NE6       30.07S
RICE LAKE      CLOUDY    65  55  68 N10       30.07R
CHETEK         CLOUDY    68  59  73 NE6       30.06R
LADYSMITH      CLOUDY    66  58  76 N7        30.08R
EAU CLAIRE     NOT AVBL
MENOMONIE      CLOUDY    66  62  87 CALM      30.05S
NEW RICHMOND   PTCLDY    66  58  76 NE6       30.05R
OSCEOLA        CLEAR     64  57  76 NE6       30.07S
$$

WIZ003>005-009-010-017-018-290400-
NORTH CENTRAL WISCONSIN

CITY           SKY/WX    TMP DP  RH WIND       PRES   REMARKS
MANITOWISH WTR CLEAR     59  55  85 NE3       30.10R
ARBOR VITAE    CLEAR     62  53  72 NE3       30.09R
WOODRUFF       CLEAR     62  53  72 NE3       30.09R
RHINELANDER    CLEAR     61  51  70 NE6       30.08R
EAGLE RIVER    CLEAR     57  49  74 NE5       30.09R
LAND O LAKES   PTCLDY    59  51  75 CALM      30.11R
PHILLIPS       CLEAR     60  55  83 NE7       30.08R
TOMAHAWK       PTCLDY    61  53  72 NE3       30.07S
MEDFORD        CLOUDY    65  65 100 N7        30.05R
MERRILL        CLOUDY    66  63  90 NE3       30.05R
$$

WIZ029-030-035-036-043>047-290400-
CENTRAL WISCONSIN

CITY           SKY/WX    TMP DP  RH WIND       PRES   REMARKS
WAUSAU         CLOUDY    66  62  87 NE3       30.03R
MOSINEE        LGT RAIN  64  63  94 NE5       30.04S
MARSHFIELD     CLOUDY    65  61  87 NE6       30.03R
STEVENS POINT  CLOUDY    62  61  97 N5        30.03R
WAUPACA        CLOUDY    67  64  90 CALM      30.01R
WAUTOMA        CLOUDY    66  61  84 NE6       30.00
WISC RAPIDS    CLOUDY    66  59  78 E8        30.02S
CAMP DOUGLAS   NOT AVBL
$$

WIZ011>013-019>022-031-037>040-048>050-290400-
NORTHEAST WISCONSIN

CITY           SKY/WX    TMP DP  RH WIND       PRES   REMARKS
ANTIGO         CLOUDY    64  58  82 CALM      30.06R
SHAWANO        CLOUDY    70  62  76 NE8       30.01S
OCONTO         MOCLDY    65  63  94 N6        30.01R
STURGEON BAY   CLOUDY    66  59  78 N13       30.01S
GREEN BAY      MOCLDY    67  64  90 NE12      30.00R
MANITOWOC      NOT AVBL
APPLETON       MOCLDY    66  59  77 N7        29.99R
CLINTONVILLE   CLOUDY    64  63  94 N3        30.01S
OSHKOSH        CLOUDY    69  58  67 E10       29.99R
$$

WIZ032>034-041-042-053>061-290400-
SOUTHWEST WISCONSIN

CITY           SKY/WX    TMP DP  RH WIND       PRES   REMARKS
LA CROSSE      CLOUDY    65  62  90 N6        29.99R
SPARTA         CLOUDY    62  61  97 NE3       30.00S
VIROQUA        CLOUDY    65  65 100 NE8       29.98S
BOSCOBEL       CLOUDY    72  66  81 NE3       29.96R
PRAIRIE DU CHI RAIN      67  65  94 NW5       29.96R
PLATTEVILLE    MOCLDY    71  70  98 NE10      29.95R
$$

WIZ056-057-062-063-064-067-068-290400-
SOUTH CENTRAL WISCONSIN

CITY           SKY/WX    TMP DP  RH WIND       PRES   REMARKS
REEDSBURG      CLOUDY    67  65  90 NE7       29.97R
BARABOO/DELLS  CLOUDY    67  62  83 NE9       29.98R
LONE ROCK      NOT AVBL
MINERAL POINT  CLOUDY    70  68  94 NE9       29.95R
MADISON        CLOUDY    70  62  76 E8        29.96R
MIDDLETON      CLOUDY    70  64  81 E8        29.97R
WATERTOWN      CLOUDY    67  62  83 NE6       29.97R
MONROE         CLOUDY    68  64  88 NE9       29.95R
JANESVILLE     NOT AVBL
$$

WIZ051-052-058>065-066-070>072-290400-
SOUTHEAST WISCONSIN

CITY           SKY/WX    TMP DP  RH WIND       PRES   REMARKS
MILWAUKEE      CLOUDY    68  63  84 N12       29.95R
WAUKESHA       CLOUDY    64  59  82 NE10      29.97R
MILWAUKEE/TIMM CLOUDY    66  59  77 N8        29.97R
RACINE         PTCLDY    66  63  90 N10       29.96S
BURLINGTON     CLOUDY    67  65  93 NE3       29.95R
KENOSHA        MOCLDY    68  66  93 NE7       29.94S
FOND DU LAC    CLOUDY    68  57  68 NE10      29.99R
SHEBOYGAN      CLOUDY    65  59  81 NE16      29.97S
WEST BEND      MOCLDY    64  55  72 NE6       29.97S
JUNEAU         CLOUDY    66  59  78 NE7       29.98R
$$

LSZ147-162-290400-
LAKE SUPERIOR

STATION/POSITION TIME  TEMP    WIND        PRES    WAVE
                       AIR SEA DIR/SP/G            HT/PER
                 (UTC) (F)     (DEG/KT/KT) (MB)    (FT/S)
W MID LAKE BUOY  0150   61 61  340/  4/  6 1018.5R   1/ 4
DEVILS ISLAND    0200   63      70/  5/  6 1019.0R
PORT WING        0240   60      CALM  /  2 1019.3R
SAXON HARBOR     0200   61     180/  2/  3 1018.3R
$$

LMZ867-665-643>646-290400-
LAKE MICHIGAN

STATION/POSITION TIME  TEMP    WIND        PRES    WAVE
                       AIR SEA DIR/SP/G            HT/PER
                 (UTC) (F)     (DEG/KT/KT) (MB)    (FT/S)
CHAMBERS ISLAND  0200   69     350/ 19/ 23 1016.3R
N MID LAKE BUOY  0150   69 70  360/ 19/ 23 1014.9R   2/ 3
NORTHPORT PIER   0200   69      10/ 16/ 20 1016.3R
SISTER BAY       0106   70      20/ 11/ 15   N/A
ALGOMA LAKESHORE 0143           20/  6/  8   N/A
KEWAUNEE LAKESHO 0200                      1014.9
SHEBOYGAN LAKESH 0200   62     360/ 15/ 16 1014.8S
PORT WASHINGTON  0200   68     350/  6/ 12 1014.9
ATWATER BUOY     0200   64 63   10/ 16/ 19 1015.4F
MILWAUKEE LAKESH 0210   65     350/ 14/ 16   N/A
S MID LAKE BUOY  0150   75 75  100/  8/ 10 1012.6R   2/ 6
KENOSHA   LAKESH 0200   69      10/ 12/ 14 1013.2S
$$

TC  - TEMPERATURE IN CELSIUS
VSB - VISIBILITY IN STATUTE MILES
WCI - WIND CHILL INDEX
HX  - HEAT INDEX





USA.gov is the U.S. government's official web portal to all federal, state and local government web resources and services.